User: anonymous   Login
Location: Syracuse
(43.0480°N, 76.1480°W)
Time: 22:32:30
(UTC-04:00)
Language:

Cosmos 1140 Rocket - Orbit

View from above orbital plane
View from above orbital plane
View from above satellite
View from above satellite

Ground track
Ground track

The orbit data is extracted from the following two-line orbital elements,

1 11574U 79089B   14304.11437194  .00000296  00000-0  10151-3 0  8787
2 11574 074.0704 190.8634 0016498 336.6505 127.8352 14.40301153838918
Epoch (UTC): 31 October 2014 02:44:41
Eccentricity: 0.0016498
inclination: 74.0704°
perigee height: 746 km
apogee height: 769 km
right ascension of ascending node: 190.8634°
argument of perigee: 336.6505°
revolutions per day: 14.40301153
mean anomaly at epoch: 127.8352°
orbit number at epoch: 83891

The dashed part of the orbit path shows where the satellite is in the earth's shadow,  

DLR